| time (UTC) | temp C | wind direction | speed KPH | gust KPH | rain 1hr cm | rain 24hr cm | rain mn cm | humidity % | barometer mb |
| 20260502180529 | 33 | 91 | 1.6 | 4.8 | 0.00 | 0.00 | 0.00 | 22 | 1015.5 |
| 20260502170448 | 31 | 115 | 8.0 | 11.3 | 0.00 | 0.00 | 0.00 | 24 | 1015.9 |
| 20260502163931 | 30 | 216 | 0.0 | 1.6 | 0.00 | 0.00 | 0.00 | 25 | 1016.0 |
| 20260502163427 | 30 | 163 | 4.8 | 4.8 | 0.00 | 0.00 | 0.00 | 26 | 1016.2 |
| 20260502162925 | 30 | 198 | 1.6 | 3.2 | 0.00 | 0.00 | 0.00 | 25 | 1015.9 |
| 20260502162422 | 29 | 216 | 1.6 | 4.8 | 0.00 | 0.00 | 0.00 | 26 | 1016.0 |
| 20260502161919 | 30 | 345 | 3.2 | 4.8 | 0.00 | 0.00 | 0.00 | 26 | 1015.9 |
| 20260502161415 | 29 | 154 | 0.0 | 1.6 | 0.00 | 0.00 | 0.00 | 26 | 1015.9 |
| 20260502160913 | 29 | 215 | 1.6 | 4.8 | 0.00 | 0.00 | 0.00 | 27 | 1016.0 |
| 20260502160411 | 28 | 287 | 1.6 | 3.2 | 0.00 | 0.00 | 0.00 | 27 | 1016.0 |
| 20260502151849 | 27 | 245 | 0.0 | 1.6 | 0.00 | 0.00 | 0.00 | 23 | 1015.8 |
| 20260502151345 | 26 | 224 | 0.0 | 0.0 | 0.00 | 0.00 | 0.00 | 24 | 1015.6 |
| 20260502150843 | 26 | 198 | 0.0 | 0.0 | 0.00 | 0.00 | 0.00 | 24 | 1015.7 |
| 20260502150339 | 25 | 180 | 0.0 | 1.6 | 0.00 | 0.00 | 0.00 | 24 | 1015.6 |
| 20260502130727 | 17 | 214 | 0.0 | 0.0 | 0.00 | 0.00 | 0.00 | 35 | 1014.3 |
| 20260502130225 | 17 | 287 | 0.0 | 0.0 | 0.00 | 0.00 | 0.00 | 36 | 1014.4 |
| 20260502123711 | 17 | 221 | 0.0 | 0.0 | 0.00 | 0.00 | 0.00 | 32 | 1014.1 |
| 20260502123208 | 17 | 211 | 0.0 | 3.2 | 0.00 | 0.00 | 0.00 | 33 | 1014.1 |
| 20260502122704 | 18 | 196 | 0.0 | 0.0 | 0.00 | 0.00 | 0.00 | 34 | 1013.9 |
| 20260502122201 | 18 | 192 | 0.0 | 0.0 | 0.00 | 0.00 | 0.00 | 31 | 1013.7 |
| 20260502121659 | 18 | 208 | 0.0 | 3.2 | 0.00 | 0.00 | 0.00 | 31 | 1013.7 |
| 20260502121156 | 18 | 183 | 0.0 | 0.0 | 0.00 | 0.00 | 0.00 | 32 | 1013.7 |
| 20260502120653 | 18 | 170 | 0.0 | 0.0 | 0.00 | 0.00 | 0.00 | 31 | 1013.8 |
| 20260502120150 | 18 | 199 | 0.0 | 0.0 | 0.00 | 0.00 | 0.00 | 34 | 1013.7 |
| 20260502115647 | 18 | 115 | 1.6 | 1.6 | 0.00 | 0.00 | 0.00 | 33 | 1013.4 |
| 20260502115143 | 18 | 311 | 1.6 | 1.6 | 0.00 | 0.00 | 0.00 | 33 | 1013.5 |
| 20260502114639 | 18 | 59 | 1.6 | 3.2 | 0.00 | 0.00 | 0.00 | 28 | 1013.5 |
| 20260502114137 | 18 | 224 | 0.0 | 0.0 | 0.00 | 0.00 | 0.00 | 30 | 1013.4 |
| 20260502113634 | 18 | 16 | 0.0 | 1.6 | 0.00 | 0.00 | 0.00 | 29 | 1013.5 |
| 20260502113132 | 18 | 200 | 0.0 | 0.0 | 0.00 | 0.00 | 0.00 | 28 | 1013.5 |
| 20260502112630 | 19 | 202 | 0.0 | 0.0 | 0.00 | 0.00 | 0.00 | 27 | 1013.5 |
| 20260502112127 | 20 | 192 | 0.0 | 1.6 | 0.00 | 0.00 | 0.00 | 28 | 1013.4 |
| 20260502111625 | 20 | 195 | 0.0 | 0.0 | 0.00 | 0.00 | 0.00 | 26 | 1013.4 |
| 20260502111122 | 20 | 215 | 0.0 | 1.6 | 0.00 | 0.00 | 0.00 | 26 | 1013.3 |
| 20260502110620 | 21 | 201 | 0.0 | 0.0 | 0.00 | 0.00 | 0.00 | 26 | 1013.5 |
| 20260502110117 | 21 | 190 | 1.6 | 1.6 | 0.00 | 0.00 | 0.00 | 26 | 1013.4 |
| 20260502105614 | 21 | 200 | 3.2 | 3.2 | 0.00 | 0.00 | 0.00 | 27 | 1013.4 |
| 20260502105111 | 22 | 179 | 1.6 | 1.6 | 0.00 | 0.00 | 0.00 | 28 | 1013.3 |
| 20260502104608 | 23 | 217 | 0.0 | 6.4 | 0.00 | 0.00 | 0.00 | 27 | 1013.1 |
| 20260502104106 | 23 | 18 | 1.6 | 3.2 | 0.00 | 0.00 | 0.00 | 25 | 1012.9 |
| 20260502103603 | 23 | 341 | 3.2 | 6.4 | 0.00 | 0.00 | 0.00 | 25 | 1013.1 |
| 20260502103101 | 22 | 39 | 4.8 | 6.4 | 0.00 | 0.00 | 0.00 | 26 | 1013.0 |
| 20260502102557 | 23 | 221 | 0.0 | 6.4 | 0.00 | 0.00 | 0.00 | 27 | 1013.1 |
| 20260502102054 | 23 | 10 | 4.8 | 9.7 | 0.00 | 0.00 | 0.00 | 27 | 1012.9 |
| 20260502101552 | 22 | 7 | 4.8 | 11.3 | 0.00 | 0.00 | 0.00 | 27 | 1012.8 |
| 20260502101050 | 22 | 24 | 3.2 | 11.3 | 0.00 | 0.00 | 0.00 | 27 | 1012.8 |
| 20260502100549 | 22 | 299 | 3.2 | 9.7 | 0.00 | 0.00 | 0.00 | 27 | 1012.9 |
| 20260502091523 | 19 | 339 | 1.6 | 3.2 | 0.00 | 0.00 | 0.00 | 29 | 1012.7 |
| 20260502091021 | 18 | 224 | 0.0 | 0.0 | 0.00 | 0.00 | 0.00 | 31 | 1012.7 |
| 20260502090517 | 18 | 207 | 0.0 | 0.0 | 0.00 | 0.00 | 0.00 | 30 | 1012.7 |
| 20260502071412 | 23 | 237 | 0.0 | 1.6 | 0.00 | 0.00 | 0.00 | 23 | 1012.7 |
| 20260502070910 | 23 | 182 | 0.0 | 3.2 | 0.00 | 0.00 | 0.00 | 22 | 1012.4 |
| 20260502070407 | 23 | 154 | 1.6 | 3.2 | 0.00 | 0.00 | 0.00 | 23 | 1012.5 |
| 20260502065906 | 23 | 197 | 1.6 | 1.6 | 0.00 | 0.00 | 0.00 | 23 | 1012.6 |
| 20260502065404 | 23 | 158 | 1.6 | 3.2 | 0.00 | 0.00 | 0.00 | 23 | 1012.6 |
| 20260502064902 | 23 | 167 | 0.0 | 1.6 | 0.00 | 0.00 | 0.00 | 23 | 1012.3 |
| 20260502064359 | 23 | 178 | 0.0 | 1.6 | 0.00 | 0.00 | 0.00 | 23 | 1012.5 |
| 20260502063856 | 23 | 188 | 0.0 | 0.0 | 0.00 | 0.00 | 0.00 | 23 | 1012.6 |
| 20260502063354 | 23 | 202 | 0.0 | 1.6 | 0.00 | 0.00 | 0.00 | 24 | 1012.3 |
| 20260502062851 | 23 | 165 | 0.0 | 0.0 | 0.00 | 0.00 | 0.00 | 24 | 1012.5 |
| 20260502062349 | 23 | 184 | 0.0 | 0.0 | 0.00 | 0.00 | 0.00 | 23 | 1012.5 |
| 20260502061848 | 23 | 218 | 0.0 | 0.0 | 0.00 | 0.00 | 0.00 | 23 | 1012.4 |
| 20260502061345 | 23 | 187 | 0.0 | 1.6 | 0.00 | 0.00 | 0.00 | 23 | 1012.4 |
| 20260502060841 | 23 | 169 | 1.6 | 3.2 | 0.00 | 0.00 | 0.00 | 23 | 1012.5 |
| 20260502060336 | 23 | 166 | 1.6 | 1.6 | 0.00 | 0.00 | 0.00 | 23 | 1012.3 |
| 20260502055834 | 23 | 172 | 0.0 | 0.0 | 0.00 | 0.00 | 0.00 | 23 | 1012.4 |
| 20260502055331 | 23 | 206 | 0.0 | 0.0 | 0.00 | 0.00 | 0.00 | 23 | 1012.3 |
| 20260502054831 | 23 | 156 | 0.0 | 0.0 | 0.00 | 0.00 | 0.00 | 23 | 1012.3 |
| 20260502054328 | 24 | 199 | 0.0 | 0.0 | 0.00 | 0.00 | 0.00 | 22 | 1012.3 |
| 20260502053825 | 25 | 188 | 0.0 | 0.0 | 0.00 | 0.00 | 0.00 | 22 | 1012.3 |
| 20260502053322 | 25 | 199 | 0.0 | 1.6 | 0.00 | 0.00 | 0.00 | 21 | 1012.4 |
| 20260502052820 | 25 | 168 | 1.6 | 3.2 | 0.00 | 0.00 | 0.00 | 21 | 1012.2 |
| 20260502052318 | 25 | 194 | 0.0 | 3.2 | 0.00 | 0.00 | 0.00 | 21 | 1012.3 |
| 20260502051815 | 25 | 201 | 0.0 | 1.6 | 0.00 | 0.00 | 0.00 | 21 | 1012.3 |
| 20260502051314 | 24 | 197 | 1.6 | 3.2 | 0.00 | 0.00 | 0.00 | 21 | 1012.4 |
| 20260502050810 | 24 | 199 | 0.0 | 0.0 | 0.00 | 0.00 | 0.00 | 21 | 1012.1 |
| 20260502050306 | 24 | 190 | 0.0 | 0.0 | 0.00 | 0.00 | 0.00 | 21 | 1012.3 |
| 20260502045803 | 25 | 142 | 0.0 | 1.6 | 0.00 | 0.00 | 0.00 | 21 | 1012.3 |
| 20260502045300 | 25 | 164 | 1.6 | 3.2 | 0.00 | 0.00 | 0.00 | 20 | 1012.1 |
| 20260502044757 | 25 | 182 | 0.0 | 4.8 | 0.00 | 0.00 | 0.00 | 20 | 1012.0 |
| 20260502044253 | 25 | 153 | 1.6 | 3.2 | 0.00 | 0.00 | 0.00 | 20 | 1011.9 |
| 20260502043750 | 25 | 193 | 1.6 | 3.2 | 0.00 | 0.00 | 0.00 | 20 | 1011.9 |
| 20260502043248 | 25 | 160 | 3.2 | 3.2 | 0.00 | 0.00 | 0.00 | 20 | 1011.9 |
| 20260502042747 | 26 | 111 | 3.2 | 3.2 | 0.00 | 0.00 | 0.00 | 20 | 1011.9 |
| 20260502042245 | 26 | 175 | 1.6 | 3.2 | 0.00 | 0.00 | 0.00 | 20 | 1011.7 |
| 20260502041743 | 26 | 173 | 1.6 | 1.6 | 0.00 | 0.00 | 0.00 | 20 | 1011.8 |
| 20260502041240 | 26 | 196 | 1.6 | 3.2 | 0.00 | 0.00 | 0.00 | 20 | 1011.7 |
| 20260502040736 | 26 | 176 | 1.6 | 3.2 | 0.00 | 0.00 | 0.00 | 20 | 1011.6 |
| 20260502040233 | 26 | 177 | 0.0 | 1.6 | 0.00 | 0.00 | 0.00 | 21 | 1011.6 |
| 20260502035729 | 26 | 183 | 1.6 | 3.2 | 0.00 | 0.00 | 0.00 | 21 | 1011.5 |
| 20260502035226 | 26 | 159 | 1.6 | 3.2 | 0.00 | 0.00 | 0.00 | 21 | 1011.5 |
| 20260502034723 | 26 | 148 | 0.0 | 1.6 | 0.00 | 0.00 | 0.00 | 21 | 1011.4 |
| 20260502034222 | 26 | 148 | 1.6 | 3.2 | 0.00 | 0.00 | 0.00 | 21 | 1011.2 |
| 20260502033720 | 26 | 143 | 1.6 | 1.6 | 0.00 | 0.00 | 0.00 | 21 | 1011.4 |
| 20260502033217 | 26 | 171 | 1.6 | 1.6 | 0.00 | 0.00 | 0.00 | 20 | 1011.2 |
| 20260502032713 | 27 | 163 | 1.6 | 3.2 | 0.00 | 0.00 | 0.00 | 21 | 1011.1 |
| 20260502032209 | 26 | 151 | 0.0 | 3.2 | 0.00 | 0.00 | 0.00 | 21 | 1011.2 |
| 20260502031708 | 26 | 150 | 0.0 | 0.0 | 0.00 | 0.00 | 0.00 | 21 | 1011.2 |
| 20260502031205 | 27 | 123 | 1.6 | 1.6 | 0.00 | 0.00 | 0.00 | 21 | 1011.0 |
| 20260502030704 | 27 | 165 | 1.6 | 1.6 | 0.00 | 0.00 | 0.00 | 21 | 1010.8 |
| 20260502030201 | 27 | 192 | 0.0 | 0.0 | 0.00 | 0.00 | 0.00 | 21 | 1010.9 |
| 20260502025658 | 27 | 201 | 0.0 | 1.6 | 0.00 | 0.00 | 0.00 | 20 | 1010.8 |
| 20260502025156 | 27 | 175 | 1.6 | 3.2 | 0.00 | 0.00 | 0.00 | 20 | 1010.8 |
| 20260502024654 | 28 | 197 | 0.0 | 3.2 | 0.00 | 0.00 | 0.00 | 20 | 1010.6 |
| 20260502024152 | 28 | 188 | 1.6 | 1.6 | 0.00 | 0.00 | 0.00 | 19 | 1010.7 |
| 20260502023650 | 28 | 168 | 0.0 | 1.6 | 0.00 | 0.00 | 0.00 | 19 | 1010.6 |
| 20260502023147 | 28 | 174 | 0.0 | 1.6 | 0.00 | 0.00 | 0.00 | 19 | 1010.5 |
| 20260502022643 | 28 | 176 | 0.0 | 1.6 | 0.00 | 0.00 | 0.00 | 18 | 1010.6 |
| 20260502022140 | 29 | 163 | 1.6 | 1.6 | 0.00 | 0.00 | 0.00 | 18 | 1010.6 |
| 20260502021638 | 30 | 187 | 0.0 | 3.2 | 0.00 | 0.00 | 0.00 | 17 | 1010.5 |
| 20260502021135 | 30 | 190 | 0.0 | 3.2 | 0.00 | 0.00 | 0.00 | 16 | 1010.4 |
| 20260502020632 | 30 | 172 | 1.6 | 4.8 | 0.00 | 0.00 | 0.00 | 16 | 1010.4 |
| 20260502020129 | 30 | 220 | 1.6 | 3.2 | 0.00 | 0.00 | 0.00 | 16 | 1010.5 |
| 20260502015627 | 30 | 216 | 0.0 | 1.6 | 0.00 | 0.00 | 0.00 | 16 | 1010.5 |
| 20260502015123 | 31 | 204 | 1.6 | 4.8 | 0.00 | 0.00 | 0.00 | 16 | 1010.4 |
| 20260502014620 | 31 | 190 | 3.2 | 4.8 | 0.00 | 0.00 | 0.00 | 16 | 1010.4 |
| 20260502014117 | 31 | 245 | 1.6 | 3.2 | 0.00 | 0.00 | 0.00 | 16 | 1010.4 |
| 20260502013613 | 31 | 245 | 1.6 | 3.2 | 0.00 | 0.00 | 0.00 | 17 | 1010.2 |
| 20260502013109 | 32 | 279 | 0.0 | 4.8 | 0.00 | 0.00 | 0.00 | 17 | 1010.4 |
| 20260502012607 | 32 | 203 | 0.0 | 3.2 | 0.00 | 0.00 | 0.00 | 17 | 1010.1 |
| 20260502012105 | 32 | 225 | 3.2 | 4.8 | 0.00 | 0.00 | 0.00 | 16 | 1010.4 |
| 20260502011601 | 32 | 218 | 3.2 | 3.2 | 0.00 | 0.00 | 0.00 | 17 | 1010.3 |
| 20260502011057 | 32 | 182 | 1.6 | 4.8 | 0.00 | 0.00 | 0.00 | 17 | 1010.4 |
| 20260502010554 | 32 | 198 | 1.6 | 3.2 | 0.00 | 0.00 | 0.00 | 17 | 1010.5 |
| 20260502010051 | 32 | 185 | 3.2 | 4.8 | 0.00 | 0.00 | 0.00 | 17 | 1010.4 |
| 20260502005548 | 32 | 239 | 1.6 | 4.8 | 0.00 | 0.00 | 0.00 | 17 | 1010.2 |
| 20260502005046 | 32 | 241 | 3.2 | 6.4 | 0.00 | 0.00 | 0.00 | 17 | 1010.4 |
| 20260502004542 | 32 | 206 | 1.6 | 3.2 | 0.00 | 0.00 | 0.00 | 18 | 1010.3 |
| 20260502004039 | 32 | 223 | 3.2 | 9.7 | 0.00 | 0.00 | 0.00 | 17 | 1010.4 |
| 20260502003537 | 32 | 257 | 1.6 | 3.2 | 0.00 | 0.00 | 0.00 | 17 | 1010.5 |
| 20260502003033 | 32 | 281 | 4.8 | 9.7 | 0.00 | 0.00 | 0.00 | 17 | 1010.5 |
| 20260502002530 | 32 | 179 | 4.8 | 4.8 | 0.00 | 0.00 | 0.00 | 18 | 1010.4 |
| 20260502002027 | 32 | 243 | 1.6 | 6.4 | 0.00 | 0.00 | 0.00 | 18 | 1010.6 |
| 20260502001525 | 32 | 206 | 4.8 | 9.7 | 0.00 | 0.00 | 0.00 | 18 | 1010.5 |
| 20260502001022 | 32 | 191 | 6.4 | 6.4 | 0.00 | 0.00 | 0.00 | 18 | 1010.8 |
| 20260502000520 | 32 | 194 | 1.6 | 9.7 | 0.00 | 0.00 | 0.00 | 18 | 1010.4 |
| 20260502000017 | 33 | 352 | 1.6 | 3.2 | 0.00 | 0.00 | 0.00 | 17 | 1010.6 |
| 20260501235513 | 33 | 175 | 3.2 | 4.8 | 0.00 | 0.00 | 0.00 | 17 | 1010.5 |
| 20260501235008 | 33 | 252 | 1.6 | 3.2 | 0.00 | 0.00 | 0.00 | 18 | 1010.5 |
| 20260501234504 | 32 | 193 | 3.2 | 6.4 | 0.00 | 0.00 | 0.00 | 18 | 1010.5 |
| 20260501234003 | 32 | 250 | 1.6 | 3.2 | 0.00 | 0.00 | 0.00 | 18 | 1010.9 |
| 20260501233500 | 32 | 220 | 1.6 | 6.4 | 0.00 | 0.00 | 0.00 | 18 | 1010.7 |
| 20260501232956 | 32 | 264 | 1.6 | 4.8 | 0.00 | 0.00 | 0.00 | 17 | 1010.6 |
| 20260501232453 | 32 | 12 | 3.2 | 6.4 | 0.00 | 0.00 | 0.00 | 17 | 1010.5 |
| 20260501231950 | 32 | 278 | 3.2 | 4.8 | 0.00 | 0.00 | 0.00 | 18 | 1010.7 |
| 20260501231448 | 32 | 67 | 6.4 | 11.3 | 0.00 | 0.00 | 0.00 | 18 | 1010.9 |
| 20260501230946 | 32 | 307 | 4.8 | 12.9 | 0.00 | 0.00 | 0.00 | 19 | 1010.8 |
| 20260501230445 | 33 | 265 | 8.0 | 11.3 | 0.00 | 0.00 | 0.00 | 18 | 1010.7 |
| 20260501225943 | 33 | 255 | 6.4 | 9.7 | 0.00 | 0.00 | 0.00 | 19 | 1010.9 |
| 20260501225440 | 32 | 301 | 1.6 | 3.2 | 0.00 | 0.00 | 0.00 | 20 | 1011.0 |
| 20260501224935 | 32 | 340 | 4.8 | 4.8 | 0.00 | 0.00 | 0.00 | 21 | 1011.0 |
| 20260501224433 | 32 | 271 | 3.2 | 4.8 | 0.00 | 0.00 | 0.00 | 22 | 1011.0 |
| 20260501223930 | 32 | 256 | 3.2 | 9.7 | 0.00 | 0.00 | 0.00 | 22 | 1011.2 |
| 20260501223426 | 32 | 217 | 1.6 | 6.4 | 0.00 | 0.00 | 0.00 | 22 | 1010.9 |
| 20260501222922 | 33 | 203 | 0.0 | 4.8 | 0.00 | 0.00 | 0.00 | 21 | 1011.1 |
| 20260501222419 | 32 | 2 | 3.2 | 9.7 | 0.00 | 0.00 | 0.00 | 22 | 1011.4 |
| 20260501221915 | 32 | 346 | 6.4 | 9.7 | 0.00 | 0.00 | 0.00 | 22 | 1011.3 |
| 20260501221413 | 31 | 254 | 3.2 | 6.4 | 0.00 | 0.00 | 0.00 | 23 | 1011.4 |
| 20260501220911 | 32 | 276 | 6.4 | 16.1 | 0.00 | 0.00 | 0.00 | 23 | 1011.4 |
| 20260501220408 | 32 | 310 | 4.8 | 12.9 | 0.00 | 0.00 | 0.00 | 24 | 1011.5 |
| 20260501215904 | 32 | 266 | 3.2 | 11.3 | 0.00 | 0.00 | 0.00 | 23 | 1011.6 |
| 20260501215401 | 32 | 233 | 6.4 | 6.4 | 0.00 | 0.00 | 0.00 | 22 | 1011.7 |
| 20260501214856 | 31 | 178 | 3.2 | 6.4 | 0.00 | 0.00 | 0.00 | 23 | 1011.9 |
| 20260501214351 | 31 | 252 | 4.8 | 4.8 | 0.00 | 0.00 | 0.00 | 23 | 1011.8 |
| 20260501213847 | 31 | 193 | 1.6 | 4.8 | 0.00 | 0.00 | 0.00 | 24 | 1011.8 |
| 20260501213344 | 30 | 276 | 0.0 | 4.8 | 0.00 | 0.00 | 0.00 | 23 | 1012.1 |
| 20260501212840 | 31 | 253 | 3.2 | 6.4 | 0.00 | 0.00 | 0.00 | 23 | 1012.1 |
| 20260501212337 | 31 | 219 | 4.8 | 11.3 | 0.00 | 0.00 | 0.00 | 23 | 1012.2 |
| 20260501211834 | 31 | 185 | 3.2 | 9.7 | 0.00 | 0.00 | 0.00 | 22 | 1012.4 |
| 20260501211331 | 31 | 243 | 1.6 | 4.8 | 0.00 | 0.00 | 0.00 | 22 | 1012.3 |
| 20260501210828 | 30 | 230 | 1.6 | 4.8 | 0.00 | 0.00 | 0.00 | 23 | 1012.5 |
| 20260501210326 | 30 | 179 | 0.0 | 3.2 | 0.00 | 0.00 | 0.00 | 23 | 1012.4 |
| 20260501205822 | 30 | 225 | 4.8 | 9.7 | 0.00 | 0.00 | 0.00 | 23 | 1012.9 |
| 20260501205319 | 30 | 260 | 1.6 | 3.2 | 0.00 | 0.00 | 0.00 | 24 | 1012.6 |
| 20260501204815 | 30 | 196 | 0.0 | 4.8 | 0.00 | 0.00 | 0.00 | 24 | 1012.6 |
| 20260501204312 | 31 | 156 | 4.8 | 6.4 | 0.00 | 0.00 | 0.00 | 24 | 1012.8 |
| 20260501203808 | 31 | 206 | 3.2 | 11.3 | 0.00 | 0.00 | 0.00 | 25 | 1012.7 |
| 20260501203306 | 31 | 282 | 1.6 | 4.8 | 0.00 | 0.00 | 0.00 | 24 | 1012.7 |
| 20260501202802 | 30 | 270 | 6.4 | 6.4 | 0.00 | 0.00 | 0.00 | 25 | 1012.9 |
| 20260501202259 | 30 | 294 | 3.2 | 6.4 | 0.00 | 0.00 | 0.00 | 26 | 1013.0 |
| 20260501201756 | 30 | 210 | 6.4 | 11.3 | 0.00 | 0.00 | 0.00 | 25 | 1012.8 |
| 20260501201253 | 30 | 185 | 3.2 | 6.4 | 0.00 | 0.00 | 0.00 | 26 | 1012.9 |
| 20260501200750 | 30 | 161 | 1.6 | 4.8 | 0.00 | 0.00 | 0.00 | 26 | 1012.9 |
| 20260501200247 | 30 | 177 | 4.8 | 6.4 | 0.00 | 0.00 | 0.00 | 25 | 1012.9 |
| 20260501195744 | 30 | 197 | 4.8 | 6.4 | 0.00 | 0.00 | 0.00 | 26 | 1013.0 |
| 20260501195240 | 30 | 203 | 1.6 | 4.8 | 0.00 | 0.00 | 0.00 | 25 | 1013.1 |
| 20260501194736 | 30 | 136 | 3.2 | 4.8 | 0.00 | 0.00 | 0.00 | 26 | 1013.1 |
| 20260501194233 | 29 | 270 | 4.8 | 4.8 | 0.00 | 0.00 | 0.00 | 26 | 1013.3 |
| 20260501193729 | 29 | 241 | 0.0 | 3.2 | 0.00 | 0.00 | 0.00 | 26 | 1013.4 |
| 20260501193228 | 30 | 211 | 6.4 | 14.5 | 0.00 | 0.00 | 0.00 | 27 | 1013.6 |
| 20260501192725 | 29 | 190 | 6.4 | 9.7 | 0.00 | 0.00 | 0.00 | 27 | 1013.5 |
| 20260501192222 | 28 | 249 | 3.2 | 3.2 | 0.00 | 0.00 | 0.00 | 28 | 1013.6 |
| 20260501191719 | 28 | 325 | 3.2 | 4.8 | 0.00 | 0.00 | 0.00 | 28 | 1013.8 |
| 20260501191216 | 28 | 238 | 1.6 | 4.8 | 0.00 | 0.00 | 0.00 | 28 | 1013.7 |
| 20260501190712 | 29 | 171 | 3.2 | 3.2 | 0.00 | 0.00 | 0.00 | 28 | 1013.9 |
| 20260501190208 | 28 | 345 | 3.2 | 3.2 | 0.00 | 0.00 | 0.00 | 28 | 1013.8 |
| 20260501185704 | 29 | 128 | 6.4 | 9.7 | 0.00 | 0.00 | 0.00 | 28 | 1014.0 |
| 20260501185200 | 28 | 132 | 3.2 | 6.4 | 0.00 | 0.00 | 0.00 | 28 | 1014.0 |
| 20260501184656 | 28 | 186 | 6.4 | 6.4 | 0.00 | 0.00 | 0.00 | 30 | 1014.1 |
| 20260501184156 | 28 | 208 | 3.2 | 6.4 | 0.00 | 0.00 | 0.00 | 28 | 1014.3 |
| 20260501183653 | 28 | 208 | 4.8 | 6.4 | 0.00 | 0.00 | 0.00 | 30 | 1014.2 |
| 20260501183150 | 27 | 220 | 1.6 | 3.2 | 0.00 | 0.00 | 0.00 | 30 | 1014.3 |
| 20260501182646 | 27 | 158 | 3.2 | 6.4 | 0.00 | 0.00 | 0.00 | 30 | 1014.4 |
| 20260501182143 | 27 | 204 | 1.6 | 6.4 | 0.00 | 0.00 | 0.00 | 31 | 1014.6 |
| 20260501181640 | 27 | 186 | 3.2 | 3.2 | 0.00 | 0.00 | 0.00 | 30 | 1014.7 |
| 20260501181137 | 27 | 197 | 3.2 | 4.8 | 0.00 | 0.00 | 0.00 | 31 | 1014.7 |